Theta_e
306 307 307 307 307 306 305 303 302 300 299 299 299 299 300 300 297 293 288 289 288 283 283 285 285 283 284 283 278 283 282 282 282 276 276 275 276 276 278 277 279 284 282 280 274 279 281 283 286 287 287 287 288 291
306 306 306 306 306 305 304 301 299 298 298 298 298 299 299 299 298 292 289 290 290 286 284 288 287 288 287 286 284 284 282 282 282 279 277 275 276 276 274 278 280 281 280 283 281 282 282 283 285 287 287 288 288 290
305 305 305 304 304 304 303 301 299 298 297 297 297 298 299 298 299 292 289 289 287 284 284 285 283 287 290 288 289 282 284 285 284 283 279 277 275 276 277 278 278 280 282 281 281 281 282 284 286 288 288 287 287 289
304 304 304 303 303 303 302 300 299 297 296 295 296 297 297 297 296 291 289 286 285 281 279 280 287 285 287 289 290 289 287 286 284 282 279 278 277 280 278 278 279 281 282 280 279 282 284 285 286 288 286 287 286 286
303 303 303 302 302 302 301 299 298 296 295 295 296 296 296 296 293 288 286 285 284 285 278 280 283 284 286 287 287 286 285 284 282 280 279 277 280 280 278 277 279 282 282 281 281 283 283 285 287 287 287 286 287 287
303 302 302 302 301 300 299 298 297 296 295 295 296 295 295 293 289 287 283 286 284 285 281 276 278 280 283 284 285 284 284 284 284 281 279 281 283 280 276 277 280 280 282 282 282 283 283 283 285 285 287 286 286 286
302 302 302 301 300 299 298 297 296 295 295 295 295 295 295 292 287 284 282 285 286 283 279 275 276 280 279 279 282 282 283 278 281 279 278 278 279 280 276 277 280 279 279 280 280 281 283 282 284 279 280 278 276 276
301 301 301 300 299 298 297 296 296 295 294 294 295 296 295 293 288 282 285 286 282 277 276 271 273 277 278 277 279 277 278 277 274 274 273 270 275 277 274 278 279 279 279 279 279 278 278 277 277 276 275 276 277 278
301 301 300 300 299 298 297 296 295 295 295 296 295 292 286 280 279 280 287 283 279 280 274 270 273 273 277 276 274 277 273 277 271 272 269 268 272 275 279 277 277 279 279 279 273 272 273 275 275 274 274 273 276 277
300 300 300 299 298 297 297 296 296 296 297 293 285 279 275 278 285 283 278 279 277 270 271 270 266 274 276 274 274 274 272 269 274 268 264 270 273 274 275 276 276 277 277 275 274 275 273 275 274 273 275 274 275 275
299 299 299 298 298 297 297 296 296 296 290 282 275 274 277 280 277 272 271 273 269 272 269 269 269 273 274 274 273 271 270 266 271 269 270 269 272 276 272 269 269 269 272 274 272 271 270 275 275 273 274 274 272 271
299 299 298 298 298 298 297 296 296 285 281 281 278 275 273 270 270 270 265 262 267 272 267 271 271 272 272 271 273 268 268 267 271 259 269 271 275 273 269 268 268 265 263 266 267 272 273 273 272 270 272 273 271 270
298 298 298 298 298 298 297 297 294 290 282 276 272 269 272 268 267 269 267 268 266 263 266 268 270 270 269 270 265 268 270 268 258 268 271 273 274 272 268 264 265 260 259 262 266 267 268 270 264 266 271 269 268 269
298 298 298 298 298 298 298 296 292 285 278 272 270 269 269 267 268 269 271 272 268 266 265 268 266 270 265 267 263 270 259 259 267 268 273 276 272 269 265 263 262 268 264 265 269 266 266 266 268 265 266 267 266 268
298 298 298 298 298 298 297 293 289 278 274 271 270 269 265 265 261 259 256 262 263 266 268 267 266 269 264 264 261 262 264 267 269 273 275 275 270 264 266 267 265 266 265 267 267 266 266 265 265 268 267 265 266 265
298 298 295 298 298 298 294 290 285 278 270 268 265 266 260 265 264 261 260 265 262 267 265 268 265 266 265 265 266 268 270 270 275 271 274 271 267 264 266 266 268 266 266 266 267 266 267 265 267 269 266 269 265 265
297 287 297 298 297 293 293 285 283 275 278 273 268 264 265 266 269 266 265 266 265 269 269 266 267 267 263 265 267 264 271 275 274 273 271 268 270 271 267 264 265 264 266 268 268 268 268 266 262 266 271 272 267 268
287 294 298 296 292 289 284 281 277 275 274 273 267 267 263 264 264 262 261 263 268 267 266 269 265 264 267 268 270 270 268 269 268 271 271 269 269 268 267 270 267 268 270 269 267 267 267 268 270 272 269 268 266 269
293 295 296 293 290 285 281 279 276 272 271 272 265 263 263 263 261 261 262 263 263 264 268 266 267 268 270 269 272 272 270 270 276 274 272 267 266 267 268 268 267 268 268 269 270 270 268 267 267 267 267 267 267 268
297 294 294 295 290 281 276 276 275 273 272 271 266 264 263 263 261 262 263 264 266 267 268 267 269 271 272 272 270 272 271 270 273 276 276 274 271 272 270 268 268 266 268 268 268 265 267 269 268 266 265 265 264 266
293 292 294 289 284 279 276 276 275 269 268 270 266 267 264 262 264 264 266 264 268 267 269 268 268 269 265 265 265 267 266 268 270 271 272 273 272 269 268 266 265 265 264 264 264 264 263 264 264 264 263 263 264 263
289 292 285 287 282 276 274 271 271 268 268 266 268 269 268 268 266 265 265 268 267 267 266 268 268 270 268 263 262 261 261 263 263 265 264 264 267 267 265 262 263 262 262 261 261 261 261 262 262 263 262 263 263 263
290 288 285 285 279 274 269 270 269 267 269 267 268 270 267 267 266 266 268 269 268 266 265 266 265 268 263 259 259 262 261 262 262 261 260 261 261 260 261 260 260 261 261 261 260 260 260 261 262 262 263 263 263 264
290 285 281 279 274 268 272 269 266 266 267 268 270 268 267 267 266 268 270 268 265 263 261 261 263 265 264 262 261 261 259 259 259 259 258 261 261 261 258 259 259 259 259 259 259 260 261 261 261 262 262 261 262 262
281 280 279 272 269 266 263 262 263 266 266 267 268 266 266 266 269 268 269 265 262 258 258 258 260 259 260 260 260 259 258 257 257 256 259 258 259 259 260 260 260 259 259 259 258 258 259 260 260 261 260 261 261 261
275 277 275 267 266 266 263 263 264 267 268 267 266 264 265 269 271 274 263 257 257 256 256 256 256 258 257 256 256 256 257 257 256 256 257 257 256 256 256 257 257 258 260 259 258 257 258 259 259 259 260 260 261 260
273 271 268 265 265 266 265 265 267 269 266 266 264 263 268 272 270 258 256 255 255 255 256 256 255 254 254 255 256 256 256 256 255 256 258 257 257 257 258 256 255 258 259 258 258 257 257 257 258 259 259 260 261 260
270 268 267 265 266 265 268 264 263 265 265 262 266 264 270 267 260 252 253 255 255 255 254 254 254 254 253 254 255 255 255 256 257 257 257 257 257 257 256 257 257 261 258 258 258 258 259 258 259 259 260 259 259 260
264 261 266 261 264 264 260 263 262 259 257 264 262 255 249 250 251 251 253 254 252 252 252 251 252 253 252 252 252 253 253 254 254 252 251 253 254 255 257 257 257 257 257 257 259 260 260 260 261 260 260 259 259 259
263 258 263 257 260 259 257 255 255 253 253 251 250 251 250 250 252 253 251 251 250 248 248 248 248 249 248 249 250 251 250 251 253 252 249 250 252 255 256 256 256 256 257 257 256 257 260 259 259 257 257 257 257 257
259 262 258 256 255 255 254 255 255 255 254 252 252 249 248 250 251 252 252 250 249 248 247 248 248 246 247 248 247 247 249 250 250 252 253 254 254 254 254 255 256 256 256 257 256 256 256 255 255 255 255 255 255 255
261 260 259 257 256 258 258 254 253 252 252 252 251 251 250 250 248 250 253 252 250 247 248 247 246 247 247 247 248 249 252 252 253 254 252 254 255 255 256 257 257 257 257 256 256 255 254 253 253 254 255 254 254 254
261 260 259 258 258 257 258 258 254 252 251 250 250 251 251 251 249 252 254 253 250 248 248 249 249 248 248 248 250 251 253 252 253 257 257 258 258 259 259 259 258 256 254 253 253 253 253 253 253 253 252 252 252 252
Wind_Speed
22 20 19 19 18 20 19 17 11 7 5 5 4 1 2 3 3 3 2 1 1 3 1 1 2 3 3 2 4 7 2 1 2 3 1 1 1 2 2 1 3 4 4 3 3 2 3 4 3 6 3 2 2 5
22 20 19 17 17 17 13 12 10 8 7 6 5 1 2 2 4 4 2 1 0 4 3 1 1 1 3 3 3 4 3 3 3 1 2 1 2 2 3 4 1 2 2 2 1 2 2 1 3 2 1 0 1 6
22 21 18 17 15 13 13 13 11 9 8 6 4 4 4 2 5 4 3 3 3 3 2 1 0 1 1 1 3 3 1 4 2 2 1 1 3 2 2 2 2 1 1 3 1 1 1 2 1 1 0 2 4 7
24 22 20 18 16 15 16 14 11 10 8 6 4 5 5 6 7 5 2 1 3 3 2 0 3 1 7 6 3 2 3 2 2 1 1 2 2 4 3 2 2 2 2 3 2 0 1 2 2 3 3 4 6 4
24 22 21 19 17 16 17 14 13 11 9 6 5 6 4 6 11 7 4 2 1 1 3 1 1 1 5 7 5 6 3 2 2 2 4 3 1 2 2 1 2 3 2 1 2 2 2 3 5 3 4 3 3 5
24 23 22 20 18 17 17 16 13 12 9 8 7 8 11 13 6 2 2 2 2 1 4 1 2 4 5 6 8 8 6 3 2 2 2 2 2 2 0 1 1 2 1 2 2 1 2 3 5 2 4 4 3 2
25 24 23 22 21 19 18 16 14 13 12 9 9 12 9 9 3 2 2 1 2 1 3 2 2 2 3 3 2 3 4 2 3 2 2 3 2 4 1 2 0 2 2 3 3 2 3 2 3 1 2 3 2 2
26 25 23 23 22 21 19 17 16 14 11 11 11 13 14 17 11 3 4 4 4 5 3 4 1 2 6 3 2 4 3 1 6 2 2 3 4 1 3 5 4 3 2 4 3 2 3 2 3 3 2 2 3 3
26 26 25 24 22 20 20 18 17 15 12 14 18 12 4 5 2 1 2 8 4 2 3 2 4 2 4 2 2 0 2 3 1 3 2 3 1 3 5 4 3 2 2 0 2 2 3 3 2 3 3 3 1 4
27 26 25 23 23 21 20 20 18 15 20 15 6 3 1 1 3 2 5 2 4 5 4 3 1 2 2 3 2 2 3 2 1 3 4 2 5 5 6 5 3 2 2 5 4 2 2 3 4 3 5 3 4 3
28 27 25 24 22 21 22 22 20 23 10 3 2 2 1 4 2 3 2 3 3 2 2 2 1 2 1 1 2 3 1 2 1 2 3 3 4 4 2 4 3 3 4 5 1 2 1 1 4 4 3 4 4 2
29 27 26 25 23 22 23 22 26 6 3 6 6 5 2 4 3 5 1 1 1 2 2 2 2 1 2 1 2 2 3 1 1 3 1 3 5 4 3 3 3 2 2 4 4 6 6 5 2 3 5 5 3 3
29 28 27 25 23 25 24 26 18 22 11 4 5 5 3 3 5 5 5 2 3 5 6 4 3 1 1 2 4 1 2 1 1 1 3 5 4 5 5 4 4 2 2 2 3 4 5 5 2 4 4 3 4 5
30 28 27 26 24 25 24 26 24 10 6 4 4 3 3 1 5 5 4 3 2 3 6 4 4 1 1 3 1 3 1 1 1 1 5 2 4 5 4 1 1 1 3 3 2 2 3 3 4 4 5 4 4 5
30 28 26 24 26 24 27 25 12 5 4 3 3 4 4 1 2 2 1 1 3 4 4 4 4 1 2 4 2 4 2 2 4 4 3 3 3 3 3 1 2 2 1 0 1 1 3 3 3 5 3 2 4 5
30 25 14 25 26 27 28 15 5 3 4 4 3 2 1 2 1 1 2 2 4 4 2 3 4 4 2 3 3 4 4 3 2 4 3 2 2 2 3 4 4 2 2 2 2 3 3 3 3 5 7 4 3 3
25 3 27 27 32 30 21 5 3 4 3 2 2 0 1 1 2 2 4 3 4 2 3 3 4 4 4 2 2 4 5 3 3 3 2 3 2 2 3 3 4 4 3 3 3 3 4 3 4 4 5 4 6 5
4 19 32 36 23 11 3 3 4 3 4 2 1 2 2 1 2 2 2 3 4 3 3 4 6 4 5 4 3 4 4 3 3 2 2 3 3 3 2 4 3 4 4 4 3 4 3 4 4 3 4 4 6 4
18 22 36 32 13 6 4 1 3 4 2 2 3 1 1 2 0 1 1 2 0 1 5 2 4 3 4 4 3 2 2 3 1 1 2 2 3 4 5 4 4 5 5 5 4 4 4 4 3 3 4 4 5 5
33 37 34 24 7 4 5 2 1 4 4 3 3 2 3 2 0 1 2 1 2 2 2 1 4 3 3 2 1 1 2 0 1 3 2 2 3 4 6 5 4 4 3 4 3 5 5 4 3 5 5 5 5 5
29 22 23 7 3 5 4 4 3 2 4 3 2 2 2 1 2 1 2 0 2 2 1 2 1 1 3 3 3 2 5 5 3 1 1 3 4 3 3 3 3 3 3 3 3 3 3 3 5 5 5 5 5 5
6 19 5 2 4 3 5 3 5 2 4 2 3 1 3 2 2 2 1 2 2 1 0 2 2 2 2 5 4 5 3 3 3 3 3 3 3 4 4 5 4 3 3 3 3 4 4 4 4 5 5 6 5 5
16 5 4 3 4 4 1 1 5 3 4 4 1 3 1 1 0 1 2 1 2 3 3 3 4 3 5 2 2 6 9 7 5 4 4 3 2 2 2 3 2 4 4 4 3 4 5 7 6 6 6 6 6 6
9 4 5 4 5 4 2 2 2 4 3 2 3 4 2 2 2 1 2 2 3 2 5 7 5 1 2 4 4 4 5 4 3 1 2 4 3 3 3 2 2 3 3 4 4 5 6 6 9 7 8 9 8 8
7 6 6 4 2 6 5 2 2 2 4 3 4 2 3 2 2 3 3 3 2 3 5 5 5 6 3 2 2 4 4 5 5 4 2 3 2 1 2 2 2 1 3 5 6 7 7 6 6 7 8 8 10 11
5 4 6 6 3 7 7 7 7 6 5 4 2 2 2 3 4 5 2 2 2 3 4 5 4 3 3 3 2 3 4 3 3 1 2 2 1 2 2 4 5 3 4 5 7 9 9 9 9 11 10 11 12 12
6 4 2 2 5 6 5 3 3 4 5 7 6 6 4 5 7 3 2 3 2 2 2 2 2 1 2 3 3 3 4 3 3 4 4 2 1 2 3 4 6 6 7 8 7 7 9 10 10 11 11 10 11 11
3 5 9 5 5 0 7 4 6 7 6 3 6 6 10 3 3 2 3 2 3 3 1 1 2 2 2 2 3 5 4 7 4 3 2 2 1 1 1 2 3 10 7 6 7 7 8 9 10 11 13 12 12 11
3 1 6 6 4 4 4 3 4 2 3 1 5 4 4 2 0 1 2 3 2 3 4 3 3 4 2 2 2 2 2 4 6 6 5 3 4 3 6 7 7 7 6 8 11 11 13 12 13 12 13 11 11 11
2 1 6 5 5 3 1 2 3 2 4 4 6 5 4 3 2 2 2 3 3 2 2 1 2 2 3 4 5 5 3 3 5 4 2 4 5 8 9 9 9 8 8 8 9 12 14 11 12 10 10 9 8 9
1 2 7 5 5 2 2 4 4 3 4 5 4 5 5 4 0 2 3 2 2 3 4 4 4 2 3 3 2 3 4 3 2 5 5 6 8 8 8 8 8 7 8 8 9 9 10 10 9 10 11 12 13 11
3 4 6 6 4 4 2 3 3 4 3 3 3 3 3 3 3 1 2 2 2 3 3 3 3 4 3 2 2 3 7 6 7 6 8 7 7 8 8 8 7 6 7 8 8 8 9 9 8 9 10 12 12 11
3 3 4 6 4 3 3 4 4 4 5 4 3 2 2 3 4 2 2 1 1 2 3 3 4 4 5 5 4 4 5 5 9 12 13 12 12 11 8 6 6 6 6 6 6 7 8 8 7 8 8 8 8 8
Wind_Direction
184 180 176 172 154 153 153 151 157 127 119 123 134 244 89 133 133 117 104 243 170 113 111 292 337 320 323 356 339 322 299 44 314 75 11 4 69 47 97 34 79 123 144 131 117 137 206 144 114 195 7 346 273 126
181 180 176 165 160 164 172 179 173 171 169 169 173 201 211 143 149 120 104 75 315 81 101 100 125 59 345 341 310 338 336 327 357 314 94 157 53 347 309 85 304 105 34 115 239 87 18 25 331 338 312 294 164 123
180 183 182 170 176 180 178 169 172 172 175 177 181 179 129 15 166 114 123 129 76 115 113 203 262 310 16 337 265 304 239 326 6 334 59 20 111 258 58 65 161 83 155 71 113 15 114 200 263 301 41 86 83 106
179 178 177 174 179 181 164 167 175 174 172 169 176 155 145 136 133 108 106 93 80 90 108 221 292 318 316 314 227 246 299 264 303 300 50 58 41 349 32 3 348 36 154 137 80 215 140 225 255 160 115 109 108 82
175 172 170 172 176 173 162 164 170 176 171 165 164 153 134 124 112 90 86 60 61 117 148 174 279 19 311 337 47 42 3 345 348 40 35 40 348 337 20 317 263 188 156 211 132 135 329 140 162 137 121 113 95 85
172 168 168 167 169 166 160 167 172 177 166 164 174 139 127 132 121 87 56 47 37 19 106 130 338 320 333 344 27 27 14 28 62 57 62 70 27 314 95 288 286 259 260 341 67 73 76 71 91 58 127 130 141 157
170 167 168 164 167 168 162 166 175 168 158 159 152 142 138 123 74 93 163 125 82 84 98 95 344 341 345 4 20 352 36 42 30 84 49 343 5 346 117 218 303 248 258 331 339 336 61 62 157 108 107 98 81 98
167 167 166 163 164 171 171 168 172 168 160 163 157 126 102 95 103 48 15 58 85 92 58 117 328 312 8 12 349 358 352 37 25 61 54 27 304 323 262 251 267 252 269 285 270 318 13 45 47 52 33 26 45 3
167 166 165 163 164 174 171 169 167 158 161 138 119 109 76 41 73 122 33 63 54 80 116 86 142 200 360 21 291 300 353 46 321 64 45 297 325 233 226 214 262 224 197 275 51 34 7 53 2 1 26 23 38 277
168 164 165 164 157 169 169 159 151 161 139 122 59 67 14 112 345 56 10 42 23 353 25 82 309 104 346 2 52 316 25 43 359 24 293 19 277 283 252 229 255 244 195 149 83 357 9 290 236 225 224 233 238 234
164 163 162 159 159 164 162 154 156 130 105 69 104 116 176 319 71 33 74 69 346 39 26 79 232 139 14 96 123 22 106 355 46 18 338 357 276 251 288 290 276 274 252 219 90 12 316 185 167 194 240 236 247 273
162 160 159 157 160 159 158 158 147 107 140 159 124 89 72 38 52 90 34 357 228 207 156 138 141 55 112 353 106 17 95 341 252 340 357 263 253 260 305 301 326 327 307 247 218 234 236 255 254 252 281 284 275 299
160 160 159 159 161 160 160 157 144 124 119 56 54 64 59 315 57 151 201 244 247 170 182 164 132 44 118 71 67 86 96 196 262 355 254 243 295 300 330 328 328 354 201 222 224 237 249 256 261 220 282 277 303 308
159 160 160 160 161 162 157 149 137 117 79 87 120 219 157 252 244 183 181 172 121 123 148 125 108 127 48 70 42 114 51 263 77 302 236 258 256 284 311 284 331 209 213 205 213 319 322 332 319 299 250 266 272 279
158 160 158 157 159 160 148 143 121 61 92 111 91 224 209 276 49 34 14 149 183 144 133 107 83 104 56 102 29 125 86 249 220 233 247 259 264 289 305 188 197 160 138 49 9 339 294 285 269 290 271 287 266 284
154 150 158 158 158 148 139 125 63 89 60 91 73 113 66 46 307 182 193 165 186 150 128 63 110 77 60 118 128 214 123 224 276 230 252 289 272 236 215 211 221 245 236 253 241 239 259 283 328 328 314 310 308 305
148 126 160 153 139 140 127 91 91 66 145 176 252 100 113 115 186 169 160 181 148 142 157 128 98 176 112 73 261 202 202 214 212 225 224 225 217 223 230 266 276 246 261 301 335 355 327 323 325 327 324 330 314 307
102 146 147 138 130 108 52 49 93 108 198 161 177 207 169 70 126 156 181 173 152 157 146 185 126 128 169 152 251 231 231 258 229 241 262 268 262 281 281 309 332 342 342 344 334 321 316 308 308 317 316 328 303 303
148 143 140 139 134 112 117 95 93 147 173 130 106 61 66 104 88 355 129 138 122 185 116 62 93 179 211 205 188 214 221 214 168 238 271 308 341 354 357 360 9 16 357 348 349 340 336 331 324 340 328 328 322 317
134 135 146 153 92 94 93 80 78 116 162 141 96 102 83 75 50 92 87 63 104 94 54 151 216 228 169 226 205 106 74 0 67 28 360 64 34 23 37 20 12 345 356 10 20 14 356 356 12 352 340 330 321 313
128 153 143 101 65 70 94 137 95 103 125 101 118 123 88 38 74 133 170 243 61 202 272 228 269 314 60 65 34 54 42 18 51 55 0 313 5 21 50 35 28 42 49 31 8 357 2 349 320 323 324 311 304 301
112 121 93 64 89 63 84 19 110 108 72 93 130 98 106 121 144 195 167 84 212 276 284 335 340 357 68 45 36 38 1 25 49 52 23 336 11 8 18 6 3 38 54 32 6 346 325 314 313 310 304 304 290 288
97 92 84 113 107 71 77 15 84 10 110 161 145 115 79 137 143 260 188 105 99 41 4 9 347 19 107 134 78 48 32 22 38 32 17 25 89 39 48 60 39 44 19 7 346 329 319 310 310 313 311 312 316 321
85 88 134 136 94 105 120 75 60 97 93 133 147 123 169 136 157 222 206 115 89 47 26 7 358 54 114 65 42 29 19 360 8 69 12 9 15 22 29 102 70 62 32 298 320 328 329 330 329 332 331 327 326 322
125 171 148 113 90 113 103 95 74 100 122 163 121 142 182 174 171 204 210 128 79 55 13 356 21 27 54 32 25 10 13 14 6 339 5 9 347 3 33 14 343 327 353 351 345 330 319 313 313 318 319 316 318 317
152 169 156 152 163 123 169 135 182 159 123 126 100 106 183 168 169 227 117 40 52 48 24 18 2 7 31 14 321 324 323 325 321 291 294 352 27 88 46 15 345 324 5 335 326 328 326 325 323 323 320 321 319 317
153 135 92 30 107 120 102 66 67 114 130 154 168 170 170 177 227 96 118 35 32 24 337 350 347 332 297 311 297 288 295 289 246 250 275 290 137 139 87 17 336 310 319 318 311 312 313 317 320 321 317 316 320 321
117 165 136 188 102 346 118 107 138 177 172 172 126 167 178 198 128 41 29 359 334 322 352 14 359 329 309 307 313 328 329 329 327 26 36 34 131 158 102 316 275 311 312 308 310 308 310 308 309 310 313 315 315 314
91 339 98 74 92 62 60 130 167 61 360 196 113 114 109 66 336 346 354 353 3 54 49 13 355 343 338 341 354 344 344 17 48 47 23 327 326 303 342 328 323 323 320 317 315 318 315 317 318 314 309 305 299 295
112 24 97 61 76 89 41 13 86 75 46 77 108 106 80 55 6 355 19 16 32 23 309 302 300 22 23 12 352 353 349 45 71 69 312 298 293 307 311 314 316 316 317 315 312 315 317 322 319 319 314 310 309 310
313 79 77 60 78 52 85 114 104 90 68 63 40 77 116 136 317 344 18 2 11 13 11 358 346 0 39 11 17 356 329 312 335 302 273 277 285 287 290 292 294 295 296 296 302 301 304 309 303 301 304 310 314 315
34 68 123 111 117 179 162 59 73 68 56 61 80 99 104 96 96 330 349 26 39 25 320 313 311 300 272 267 267 256 254 282 297 303 302 292 293 289 289 288 289 292 294 297 302 304 305 304 307 315 316 316 318 322
72 43 77 101 108 145 164 106 70 88 51 63 54 81 65 87 118 157 206 160 166 237 287 283 270 268 267 264 258 273 275 277 295 304 305 303 300 302 301 302 305 307 308 302 308 297 299 311 319 324 325 326 330 334